Voltar ao catálogo

STARLINK-2195

AtivoComunicaçõesVLEO
NORAD 47772·PAYLOAD·🇺🇸 United States

Lançado Mar 4, 2021 de Cape Canaveral Space Force Station

Loading…

Próximas Passagens (próximas 24 horas)

TLE

AtualizadoSource: CelesTrak SupGP

Época: Sep 15, 2026, 02:13 UTC

1 47772C 21017BC  26258.09284722 -.00031830  00000+0 -10235-2 0  2582
2 47772  53.1597  55.8648 0001224  71.0836 231.2261 15.31718945    11

Acompanhe STARLINK-2195 em tempo real com AllMySat

Download on the App Store